Change the Weather History Date:

Tuesday, September 23, 2014

  Actual Average Record
Temperature  
Mean Temperature 74 °F -  
Max Temperature 88 °F 82 °F 94 °F (2012)
Min Temperature 59 °F 58 °F 46 °F (1999)
Cooling Degree Days 8    
Growing Degree Days 24 (Base 50)    
Moisture  
Dew Point 56 °F    
Average Humidity 59    
Maximum Humidity 82    
Minimum Humidity 39    
Precipitation  
Precipitation 0.00 in - - ()
Sea Level Pressure  
Sea Level Pressure 30.11 in    
Wind  
Wind Speed 10 mph (SE)    
Max Wind Speed 18 mph    
Max Gust Speed 23 mph    
Visibility 10 miles    
Events      
Averages and records for this station are not official NWS values.
T = Trace of Precipitation, MM = Missing Value Source: NWS Daily Summary

Daily Weather History Graph

Daily Weather History Graph

Search for Another Location

Airport or City:

Trip Planner

Search our weather history database for the weather conditions in past years. The results will help you decide how hot, cold, wet, or windy it might be!

Date:

Astronomy

Sep. 23, 2014 Rise Set
Actual Time 7:25 AM CDT 7:32 PM CDT
Civil Twilight 7:00 AM CDT 7:57 PM CDT
Nautical Twilight 6:31 AM CDT 8:26 PM CDT
Astronomical Twilight 6:01 AM CDT 8:56 PM CDT
Moon 6:52 AM CDT (9/23) 7:12 PM CDT (9/23)
Length of Visible Light 12h 56m
Length of Day
12h 06m
Waning Crescent, 0% of the Moon is Illuminated
Sep 23
Waning Crescent
Sep 24
New
Oct 1
First Quarter
Oct 8
Full
Oct 15
Last Quarter

Hourly Weather History & Observations

Time (CDT) Temp. Heat Index Dew Point Humidity Pressure Visibility Wind Dir Wind Speed Gust Speed Precip Events Conditions
12:58 AM 63.0 °F - 53.1 °F 70% 30.13 in 10.0 mi East 6.9 mph - N/A   Clear
1:58 AM 63.7 °F - 53.1 °F 68% 30.15 in 10.0 mi ESE 6.9 mph - N/A   Clear
2:58 AM 62.8 °F - 53.6 °F 72% 30.14 in 10.0 mi ESE 8.1 mph - N/A   Clear
3:58 AM 61.0 °F - 54.5 °F 79% 30.14 in 10.0 mi ESE 8.1 mph - N/A   Clear
4:58 AM 61.2 °F - 53.6 °F 76% 30.13 in 10.0 mi ESE 8.1 mph - N/A   Clear
6:58 AM 59.7 °F - 54.3 °F 82% 30.15 in 10.0 mi ESE 4.6 mph - N/A   Overcast
7:58 AM 60.4 °F - 55.0 °F 82% 30.17 in 10.0 mi ESE 5.8 mph - N/A   Overcast
8:53 AM 64.4 °F - 55.4 °F 73% 30.20 in 10.0 mi SE 9.2 mph - N/A   Mostly Cloudy
8:58 AM 63.9 °F - 55.0 °F 73% 30.17 in 10.0 mi SE 9.2 mph - N/A   Mostly Cloudy
9:08 AM 64.4 °F - 55.4 °F 73% 30.20 in 10.0 mi SE 10.4 mph - N/A   Scattered Clouds
9:13 AM 64.4 °F - 55.4 °F 73% 30.21 in 10.0 mi SE 10.4 mph - N/A   Mostly Cloudy
9:18 AM 64.4 °F - 55.4 °F 73% 30.20 in 10.0 mi SE 10.4 mph - N/A   Scattered Clouds
9:58 AM 70.3 °F - 53.8 °F 56% 30.17 in 10.0 mi SSE 18.4 mph 20.7 mph N/A   Clear
10:58 AM 73.8 °F - 53.2 °F 49% 30.17 in 10.0 mi SE 17.3 mph 21.9 mph N/A   Clear
12:58 PM 81.0 °F 80.6 °F 54.5 °F 40% 30.13 in 10.0 mi South 12.7 mph 20.7 mph N/A   Clear
1:58 PM 84.2 °F 83.3 °F 56.5 °F 39% 30.09 in 10.0 mi SSE 15.0 mph 18.4 mph N/A   Clear
2:58 PM 86.0 °F 85.2 °F 58.3 °F 39% 30.06 in 10.0 mi South 15.0 mph 23.0 mph N/A   Clear
3:58 PM 87.6 °F 87.2 °F 59.9 °F 39% 30.04 in 10.0 mi SSE 16.1 mph 19.6 mph N/A   Clear
4:58 PM 88.0 °F 87.9 °F 61.0 °F 40% 30.01 in 10.0 mi South 16.1 mph - N/A   Clear
5:58 PM 87.3 °F 87.2 °F 60.6 °F 41% 30.01 in 10.0 mi South 15.0 mph - N/A   Clear
6:58 PM 84.7 °F 84.4 °F 59.5 °F 42% 30.00 in 10.0 mi SE 15.0 mph - N/A   Clear
7:58 PM 79.0 °F - 58.6 °F 50% 30.00 in 10.0 mi SE 11.5 mph - N/A   Clear
8:58 PM 76.8 °F - 55.9 °F 48% 30.01 in 10.0 mi SE 15.0 mph - N/A   Clear
9:58 PM 74.8 °F - 55.4 °F 51% 30.04 in 10.0 mi ESE 11.5 mph - N/A   Clear
10:58 PM 71.6 °F - 54.9 °F 55% 30.06 in 10.0 mi ESE 13.8 mph - N/A   Partly Cloudy
11:58 PM 71.8 °F - 52.5 °F 51% 30.06 in 10.0 mi SE 13.8 mph - N/A   Overcast